Regional Weather Roundup
Issued by NWS Little Rock, AR

Home | Current Version | Previous Version | Text Only | Print | Product List | Glossary On
Versions: 1 2 3 4 5 6 7 8 9 10 11 12 13 14 15 16 17 18 19 20 21 22 23 24 25 26 27 28 29 30 31 32 33 34 35 36 37 38 39 40 41 42 43 44 45 46 47 48 49 50
000
ASUS44 KLZK 080705
RWRLZK

WEATHER ROUNDUP FOR ARKANSAS
NATIONAL WEATHER SERVICE LITTLE ROCK AR
100 AM CST THU DEC 08 2016

NOTE: "FAIR" INDICATES FEW OR NO CLOUDS BELOW 12,000 FEET WITH NO
SIGNIFICANT WEATHER AND/OR OBSTRUCTIONS TO VISIBILITY.

ARZ001-003-010-029-080800-
NORTHWEST ARKANSAS

CITY           SKY/WX    TMP DP  RH WIND       PRES   REMARKS
FAYETTEVILLE   CLOUDY    28  24  85 N8        30.42F WCI  20
FORT SMITH     MOCLDY    34  26  72 N9        30.45R WCI  27
HARRISON       CLOUDY    29  25  85 NW7G18    30.40S WCI  22
BENTONVILLE    CLOUDY    28  19  69 N14       30.45R WCI  17
ROGERS         CLOUDY    27  23  85 N13       30.45R WCI  16
SILOAM SPGS    CLOUDY    28  21  74 N18       30.44S WCI  16
HIGHFILL       CLOUDY    28  22  78 N15       30.44R WCI  16
$$

ARZ004-005-016-080800-
NORTH CENTRAL ARKANSAS

CITY           SKY/WX    TMP DP  RH WIND       PRES   REMARKS
BATESVILLE     CLOUDY    36  19  51 NW6       30.39R
FLIPPIN        CLOUDY    34  21  60 NW6G17    30.39R WCI  29
MTN HOME       CLOUDY    30  24  78 VRB7      30.40R WCI  23
$$

ARZ040-041-080800-
WEST CENTRAL ARKANSAS

CITY           SKY/WX    TMP DP  RH WIND       PRES   REMARKS
MENA           CLOUDY    36  34  93 N7        30.37F
MOUNT IDA      CLOUDY    36  30  79 NW3       30.34S
$$

ARZ009-017-025-026-028-080800-
NORTHEAST ARKANSAS

CITY           SKY/WX    TMP DP  RH WIND       PRES   REMARKS
CORNING        CLOUDY    37  25  60 NW10      30.37R
JONESBORO      CLOUDY    39  22  50 N6        30.36R
NEWPORT        CLOUDY    38  25  59 N10       30.38
WALNUT RIDGE   CLOUDY    37  21  52 N10       30.37R
BLYTHEVILLE    CLOUDY    38  31  76 N7        30.35R
$$

ARZ022-023-033-042-044-080800-
CENTRAL ARKANSAS

CITY           SKY/WX    TMP DP  RH WIND       PRES   REMARKS
LITTLE ROCK    CLOUDY    38  28  67 NW9       30.37R
N LITTLE ROCK    N/A     38  27  65 N5        30.39R
JACKSONVILLE   CLOUDY    40  24  52 N7        30.36R
SEARCY         CLOUDY    39  23  52 N13       30.39R
HOT SPRINGS    CLOUDY    38  26  62 N9G16     30.37R
RUSSELLVILLE   CLOUDY    37  28  70 N7        30.39S
CLINTON        CLOUDY    37  23  56 NW5       30.39R
$$

ARZ036-080800-
EAST ARKANSAS

CITY           SKY/WX    TMP DP  RH WIND       PRES   REMARKS
WEST MEMPHIS   CLOUDY    39  26  59 N8        30.33R
$$

ARZ050-053-066-070-073-080800-
SOUTHWEST ARKANSAS

CITY           SKY/WX    TMP DP  RH WIND       PRES   REMARKS
ARKADELPHIA    CLOUDY    38  33  82 N6        30.38R
CAMDEN         LGT RAIN  37  36  93 N12       30.36S
TEXARKANA      CLOUDY    38  37  97 N9        30.36R FOG
EL DORADO      LGT RAIN  39  38  96 N12G21    30.34R FOG
DE QUEEN       CLOUDY    39  35  86 N8        30.37R
$$

ARZ056-057-069-080800-
SOUTHEAST ARKANSAS

CITY           SKY/WX    TMP DP  RH WIND       PRES   REMARKS
PINE BLUFF     CLOUDY    40  28  62 N8        30.35S
STUTTGART      CLOUDY    39  25  56 N12       30.35S
MONTICELLO     CLOUDY    40  34  79 N9        30.33R

$$





USA.gov is the U.S. government's official web portal to all federal, state and local government web resources and services.